STARLINK-32460, 61914

Orbit data source: Space-Track

STARLINK-32460, 61914 is a payload satellite owned by SpaceX/Seattle (US) in LEO that was launched on Mon, 11 Nov 2024 UTC via an FALCON 9 launch vehicle from the Air Force Eastern Test Range (AFETR). Payload-class satellites include a variety of spacecraft equipped with specific instruments for various scientific and technological missions. These include communications satellites like Starlink; space stations such as the ISS; scientific satellites like the Hubble; Earth observation satellites from companies like Planet Labs, Umbra, and HawkEye 360; GPS; miniature CubeSats for education and research; and military/defense satellites.

Loading next visibility...
Identifier
61914, 2024-207C
Orbit
LEO
Country
Flag of USUS
Related business
Manufacturer
SpaceX/Seattle
Mission
Operational Commercial Communications
Bus & Motor
STARLINK V2M, Unknown motor
Mass
730 kg wet, ~700 kg dry
Launch date (UTC)
2024-11-11 (2 years ago)
Launch vehicle
FALCON 9
Launch site
Air Force Eastern Test Range (AFETR)
Object type
Payload
Rocket body
Debris
Shape & HBR
Box + 2 Pan, 17.7 m
Radar Cross Section
33.884 m², Large (>1 m²)

Expand to show TLE details & history
Last TLE update: 16 hours ago

TLE from 16 hours ago
0 STARLINK-32460
1 61914U 24207C   26145.23554837  .00014054  00000-0  51918-3 0  9992
2 61914  42.9999 209.0341 0001492 259.0108 101.0576 15.27585785 86439
Epoch: 2026-05-25T05:39Z
TLE epoch observation values (Epoch: 2026-05-25T05:39:11.379Z)
Latitude
0.00001°
Longitude
-118.58955°
Altitude
483.004 km
Speed
7.626 km/s
True Right ascension
13h 56m 08s
True Declination
0° 00' 00"
Sunlit
Object was in full shadow at epoch
Visualization orbit readout
Latitude
Unknown
Longitude
Unknown
Altitude
Unknown
Speed
Unknown
Apparent Right ascension
Unknown
Apparent Declination
Unknown
Sunlit
N/A
Visualization observer readout
Local Sidereal Time
07:18:01
Azimuth
Unknown
Elevation
Unknown
Doppler factor
Unknown
Orbital elements
Apogee altitude
486.001 km
Perigee altitude
483.953 km
Semi-major axis
6,863.114 km
Eccentricity
0.00015
Inclination
42.9999°
RAAN
209.0341°
Arg. of periapsis
259.0108°
True anomaly
101.07438°
Mean anomaly
101.0576°
Eccentric anomaly
101.06599°
Mean motion
3.81734 °/min
Orbital period
94.31 mins
BSTAR
0.00051918
Loading maneuver chart data...
Computing Atmospheric mass density...
Loading historical data...
Loading historical data...
Loading historical data...
Loading historical data...
Loading historical data...
Loading historical data...
Loading historical data...

Documentation

Showing up to 5 results
|